CAPE
0 0 0 0 0 0 0 0 0 311 835 723 637 453 449 260 106 50 0 0 0 0 0 0 0 0 0 0 0 0 0 0 0 0 0 0 0 0 0 0 0 0 0
0 0 0 0 0 0 0 0 0 34 560 971 1049 952 586 203 123 58 0 0 0 0 0 0 0 0 0 0 0 0 0 0 0 0 0 0 0 0 0 0 0 0 0
0 0 0 0 0 0 0 0 0 0 172 850 516 0 0 0 0 0 0 0 0 0 0 0 0 0 0 0 0 0 0 0 0 0 0 0 0 0 0 0 0 0 0
0 0 0 0 0 0 0 0 0 0 0 26 58 388 359 131 74 20 0 0 0 0 0 0 0 0 0 0 0 0 0 0 0 0 0 0 0 0 0 0 0 0 0
0 0 0 0 0 0 0 0 0 0 0 0 4 143 555 425 0 0 0 0 0 0 0 0 0 0 0 0 0 0 0 0 0 0 0 0 0 0 0 0 0 0 0
0 0 0 0 0 0 0 0 0 0 0 0 0 15 309 0 0 0 0 0 0 0 0 0 0 0 0 0 0 0 0 0 0 0 0 0 0 0 0 0 0 0 0
0 0 0 0 0 0 0 0 0 0 0 0 0 0 0 0 0 0 0 0 0 0 0 0 0 0 0 0 0 0 0 0 0 0 0 0 0 0 0 0 0 0 0
0 0 0 0 0 0 0 0 0 0 0 0 0 0 0 0 0 0 0 0 0 0 0 0 0 0 0 0 0 0 0 0 0 0 0 0 0 0 0 0 0 0 0
0 0 0 0 0 0 0 0 0 0 0 0 0 0 0 0 0 0 0 0 0 0 0 0 0 0 0 0 0 0 0 0 0 0 0 0 0 0 0 0 0 0 0
0 0 0 0 0 0 0 0 0 0 0 0 0 0 0 0 0 0 0 0 0 0 0 0 0 0 0 0 0 0 0 0 0 0 0 0 0 0 0 0 0 0 0
0 0 0 0 0 0 0 0 0 0 0 0 0 0 0 0 0 0 0 0 0 0 0 0 0 0 0 0 0 0 0 0 0 0 0 0 0 0 0 0 0 0 0
0 0 0 0 0 0 0 0 0 0 0 0 0 0 0 0 0 0 0 0 0 0 0 0 0 0 0 0 0 0 0 0 0 0 0 0 0 0 0 0 0 0 0
0 0 0 0 0 0 0 0 0 0 0 0 0 0 0 0 0 0 0 0 0 0 0 0 0 0 0 0 0 0 0 0 0 0 0 0 0 0 0 0 0 0 0
0 0 0 0 0 0 0 0 0 0 0 0 0 0 0 0 0 0 0 0 0 0 0 0 0 0 0 0 0 0 0 0 0 0 0 0 0 0 0 0 0 0 0
0 0 0 0 0 0 0 0 0 0 0 0 0 0 0 0 0 0 0 0 0 0 0 0 0 0 0 0 0 0 0 0 0 0 0 0 0 0 0 0 0 0 0
3 0 0 0 0 0 0 0 0 0 0 0 0 0 0 0 0 0 0 0 0 0 0 0 0 0 0 0 0 0 0 0 0 0 0 0 0 0 0 0 0 0 0
0 0 0 0 0 0 0 0 0 0 0 0 0 0 0 0 0 0 0 0 0 0 0 0 0 0 0 0 0 0 0 0 0 0 0 0 0 0 0 0 0 0 2
0 0 0 0 0 0 0 0 0 0 0 0 0 0 0 0 0 0 0 0 0 0 0 0 0 0 0 0 0 0 0 0 0 0 0 0 0 0 0 0 0 0 0
0 0 0 0 0 0 0 0 0 0 0 0 0 0 0 0 0 0 1 1 0 0 0 0 0 0 0 0 0 0 0 0 0 0 0 0 0 0 5 0 0 0 0
0 0 0 0 0 0 0 0 0 0 0 0 0 1 1 0 1 1 1 0 0 0 0 0 0 0 0 0 0 0 0 0 0 0 0 0 0 2 8 3 0 0 0
0 0 0 0 0 0 0 0 1 2 4 2 2 2 1 0 0 0 0 0 0 0 0 0 0 0 0 0 0 0 0 0 0 0 0 0 0 12 19 14 0 0 2
0 0 1 3 0 0 0 1 1 2 2 0 0 0 0 0 0 0 0 0 0 0 0 0 0 0 0 0 0 0 0 0 0 0 0 0 6 12 7 1 1 7 5
3 2 2 2 4 0 0 1 0 0 0 0 0 0 0 0 0 0 0 0 0 0 0 0 0 0 0 0 0 0 0 0 0 0 1 9 2 0 0 0 2 1 0
2 1 0 0 0 0 0 0 0 0 0 0 0 0 0 0 0 0 0 0 0 0 0 0 0 0 0 0 0 0 0 0 0 0 0 0 0 0 0 0 0 0 0
0 0 0 0 0 0 0 0 0 0 0 0 0 0 0 0 0 0 0 0 0 0 0 0 0 0 0 0 0 0 0 0 0 0 0 0 0 0 0 0 0 0 0
0 0 0 0 0 0 0 0 0 0 0 0 0 0 0 0 0 0 0 0 0 0 0 0 0 0 0 0 1 2 4 2 3 0 0 0 0 0 0 0 0 0 0
CIN
0 0 0 0 0 0 0 0 -0 -130 -132 -131 -126 -154 -172 -197 -234 -303 0 0 0 0 0 0 0 0 0 0 0 0 0 0 0 0 0 0 0 0 0 0 0 0 0
0 0 0 0 0 0 0 0 0 -81 -129 -146 -114 -129 -187 -252 -240 -280 -16 0 0 0 0 0 0 0 0 0 0 0 0 0 0 0 0 0 0 0 0 0 0 0 0
0 0 0 0 0 0 0 0 0 0 -154 -101 -156 0 0 0 0 0 0 0 0 0 0 0 0 0 0 0 0 0 0 0 0 0 0 0 0 0 0 0 0 0 0
0 0 0 0 0 0 0 0 0 0 0 -65 -413 -192 -140 -236 -239 -73 0 0 0 0 0 0 0 0 0 0 0 0 0 0 0 0 0 0 0 0 0 0 0 0 0
0 0 0 0 0 0 0 0 0 0 0 0 -131 -326 -114 -167 0 0 0 0 0 0 0 0 0 0 0 0 0 0 0 0 0 0 0 0 0 0 0 0 0 0 0
0 0 0 0 0 0 0 0 0 0 0 0 0 -248 -214 0 0 0 0 0 0 0 0 0 0 0 0 0 0 0 0 0 0 0 0 0 0 0 0 0 0 0 0
0 0 0 0 0 0 0 0 0 0 0 0 0 0 0 0 0 0 0 0 0 0 0 0 0 0 0 0 0 0 0 0 0 0 0 0 0 0 0 0 0 0 0
0 0 0 0 0 0 0 0 0 0 0 0 0 0 0 0 0 0 0 0 0 0 0 0 0 0 0 0 0 0 0 0 0 0 0 0 0 0 0 0 0 0 0
0 0 0 0 0 0 0 0 0 0 0 0 0 0 0 0 0 0 0 0 0 0 0 0 0 0 0 0 0 0 0 0 0 0 0 0 0 0 0 0 0 0 0
0 0 0 0 0 0 0 0 0 0 0 0 0 0 0 0 0 0 0 0 0 0 0 0 0 0 0 0 0 0 0 0 0 0 0 0 0 0 0 0 0 0 0
0 0 0 0 0 0 0 0 0 0 0 0 0 0 0 0 0 0 0 0 0 0 0 0 0 0 0 0 0 0 0 0 0 0 0 0 0 0 0 0 0 0 0
0 0 0 0 0 0 0 0 0 0 0 0 0 0 0 0 0 0 0 0 0 0 0 0 0 0 0 0 0 0 0 0 0 0 0 0 0 0 0 0 0 0 0
0 0 0 0 0 0 -54 0 0 0 0 0 0 0 0 0 0 0 0 0 0 0 0 0 0 0 0 0 0 0 0 0 0 0 0 0 0 0 0 0 0 0 0
0 0 0 0 0 -86 0 0 0 0 0 0 0 0 0 0 0 0 0 0 0 0 0 0 0 0 0 0 0 0 0 0 0 0 0 0 0 0 0 0 0 0 0
0 0 0 0 0 0 0 0 0 0 0 0 0 0 0 0 0 0 0 0 0 0 0 0 0 0 0 0 0 0 0 0 0 0 0 0 0 0 0 0 0 0 0
-3 0 0 0 0 0 0 0 0 0 0 0 0 0 0 0 0 0 0 0 0 0 0 0 0 0 0 0 0 0 0 0 0 0 0 0 0 0 0 0 0 0 0
0 0 0 0 0 0 0 0 0 0 0 0 0 0 0 0 0 0 0 0 0 0 0 0 0 0 0 0 0 0 0 0 0 0 0 0 0 0 0 0 0 0 -2
0 0 0 0 0 0 0 0 0 0 0 0 0 0 0 0 0 0 0 0 0 0 0 0 0 0 0 0 0 0 0 0 0 0 0 0 0 0 0 0 0 0 0
0 0 0 0 0 0 0 0 0 0 0 0 0 0 0 0 0 0 0 0 0 0 0 0 0 0 0 0 0 0 0 0 0 0 0 0 0 0 0 0 0 0 0
0 0 0 0 0 0 0 0 0 0 0 0 0 0 0 0 0 0 0 0 0 0 0 0 0 0 0 0 0 0 0 0 0 0 0 0 0 0 0 -4 0 0 0
0 0 0 0 0 0 0 0 0 0 0 0 0 0 0 0 0 0 0 0 0 0 0 0 0 0 0 0 0 0 0 0 0 0 0 0 0 0 0 -0 0 0 -1
0 0 0 0 0 0 0 0 0 0 0 0 0 0 0 0 0 0 0 0 0 0 0 0 0 0 0 0 0 0 0 0 0 0 0 0 -0 0 0 0 0 0 0
0 0 0 0 0 0 0 0 0 0 0 0 0 0 0 0 0 0 0 0 0 0 0 0 0 0 0 0 0 0 0 0 0 0 -0 -0 -0 0 0 0 0 0 0
0 0 0 0 0 0 0 0 0 0 0 0 0 0 0 0 0 0 0 0 0 0 0 0 0 0 0 0 0 0 0 0 0 0 0 0 0 0 0 0 0 0 0
0 0 0 0 0 0 0 0 0 0 0 0 0 0 0 0 0 0 0 0 0 0 0 0 0 0 0 0 0 -0 0 -1 -0 0 0 0 0 0 0 0 0 0 0
0 0 0 0 0 0 0 0 0 0 0 0 0 0 0 0 0 0 0 0 0 0 0 0 0 0 0 0 -0 0 -0 0 0 0 0 0 0 0 0 0 0 0 0
Wind_Speed
14 7 8 8 8 8 7 9 10 12 12 8 9 6 10 7 7 8 12 12 10 11 11 7 8 6 8 6 6 4 4 2 1 3 2 3 3 0 1 2 2 3 3
10 9 9 9 8 9 8 8 9 13 13 11 11 7 9 6 6 7 8 11 13 12 11 11 9 9 6 7 6 6 3 2 1 3 2 1 2 2 2 0 2 1 1
17 16 10 10 9 9 9 8 8 10 13 15 5 3 4 3 2 3 4 8 12 12 11 12 10 10 8 8 7 6 6 4 0 1 3 2 4 1 2 2 2 2 2
13 13 11 9 9 9 9 8 8 8 9 9 9 13 11 8 7 9 6 3 6 12 10 10 11 10 7 7 5 4 3 5 4 2 2 3 3 3 1 1 1 2 1
9 10 8 7 7 5 6 6 6 7 8 8 13 11 13 10 4 5 8 8 5 6 9 10 10 10 6 7 8 7 5 2 4 3 3 2 2 3 3 3 3 2 2
8 8 4 3 4 3 2 2 4 6 7 8 10 16 14 7 8 8 8 7 6 6 7 9 8 7 8 9 6 6 6 4 4 3 3 3 3 3 3 2 2 4 3
4 4 5 3 1 2 2 0 1 6 6 7 8 14 13 16 16 15 11 12 9 6 8 9 8 7 8 8 8 7 5 4 5 4 3 2 2 2 2 3 2 2 2
4 6 3 4 2 2 4 5 7 7 8 8 9 9 14 10 9 12 12 10 9 8 9 8 8 9 10 9 8 5 3 5 5 6 4 3 2 2 2 3 3 2 2
4 4 5 5 3 2 4 5 7 7 9 9 8 9 10 12 13 11 10 9 9 8 10 11 10 9 10 10 9 6 6 4 3 5 6 3 2 3 3 3 3 4 2
7 7 9 8 5 5 5 5 5 8 9 8 8 8 10 10 12 12 13 13 11 12 12 12 11 9 10 9 8 6 5 6 3 3 5 3 2 3 2 2 2 3 4
9 12 10 8 8 5 4 6 7 7 6 6 8 10 9 8 9 11 12 12 13 14 14 12 12 11 9 8 7 7 5 4 4 4 5 4 4 3 3 2 2 3 4
16 17 13 9 8 4 6 6 8 6 5 5 8 9 11 10 8 9 11 12 11 11 11 12 12 11 9 7 8 8 6 3 3 3 3 4 3 3 4 3 4 4 4
14 17 7 9 6 4 4 6 5 1 4 6 8 9 10 12 10 10 11 11 12 12 13 13 13 12 10 7 7 5 5 4 2 0 3 2 3 4 2 3 4 4 4
11 13 5 3 6 5 5 5 6 5 6 6 9 9 9 10 10 12 13 14 13 14 14 13 13 11 9 10 7 4 6 5 2 1 1 3 4 5 4 4 5 5 4
12 11 5 4 2 4 6 7 7 6 7 4 8 11 11 13 13 13 14 14 15 14 15 15 12 9 7 6 8 6 2 3 1 2 3 3 5 8 8 4 4 4 4
9 7 5 4 3 3 6 6 6 8 8 7 10 13 14 14 13 14 15 15 15 14 14 13 11 7 6 11 9 6 2 1 2 3 4 4 7 7 11 11 14 11 4
12 8 1 3 4 5 4 7 10 9 11 11 12 13 13 16 14 15 15 14 13 12 11 10 9 7 7 10 8 5 2 2 2 3 3 4 3 6 5 10 14 13 16
6 5 5 6 6 6 8 11 12 12 13 13 11 12 13 16 14 15 14 12 10 10 8 8 6 6 6 10 8 6 3 3 2 2 2 3 5 6 8 6 5 6 6
9 7 6 7 9 10 10 13 13 12 13 12 11 11 13 13 13 14 12 8 10 8 4 5 6 5 4 8 6 5 2 0 3 3 4 5 5 11 16 7 5 6 6
9 9 9 9 11 9 10 13 11 11 11 9 10 11 11 12 12 11 9 5 7 5 4 4 5 7 4 6 4 5 3 2 3 4 4 9 10 15 17 9 5 5 7
8 8 9 9 8 6 8 10 11 11 9 9 11 10 9 10 10 8 7 7 5 4 4 4 4 4 2 2 2 5 3 3 2 3 3 4 15 16 18 18 5 8 11
8 9 9 9 7 8 9 11 11 8 10 10 10 10 8 8 6 7 6 7 5 5 4 5 5 4 4 6 6 6 8 9 3 4 4 6 15 16 18 13 16 18 14
6 7 8 9 8 8 8 11 7 10 11 9 8 7 8 7 6 7 6 5 5 4 4 4 3 2 3 3 7 8 10 10 5 4 9 13 14 14 9 15 15 13 5
7 7 8 8 8 8 8 10 8 9 8 8 7 8 8 6 6 5 4 4 4 4 3 3 3 1 2 3 3 3 4 9 8 9 4 7 9 10 10 8 7 5 5
6 6 7 8 8 8 8 7 7 6 8 7 6 7 6 5 5 4 4 4 2 4 3 2 2 1 2 3 6 7 4 4 5 5 3 3 4 5 5 5 5 5 5
6 7 7 9 8 8 7 6 7 8 9 7 5 4 4 4 4 4 4 7 7 7 6 5 2 2 4 7 10 12 12 11 11 3 3 4 4 5 6 6 7 6 8
Wind_Direction
262 250 253 240 237 261 258 198 203 195 190 188 186 180 192 195 194 189 193 178 168 166 162 160 154 157 158 157 145 117 120 73 84 97 23 360 0 127 187 158 178 187 173
257 240 234 242 231 237 234 227 205 214 193 192 193 190 184 200 196 190 193 184 168 172 174 164 165 164 138 146 156 145 131 115 147 140 113 126 307 349 13 348 176 132 117
255 256 245 236 228 225 229 231 211 209 207 202 177 72 67 56 116 176 173 188 174 172 181 166 163 160 155 164 169 158 149 146 131 92 139 124 218 11 359 11 91 94 94
246 250 247 240 233 233 225 227 227 214 215 180 171 195 190 175 200 185 176 162 173 171 172 161 161 165 153 153 152 147 150 125 152 115 77 55 120 167 298 336 314 56 121
242 258 250 250 256 277 277 278 259 226 210 216 183 195 215 193 124 121 148 148 164 181 175 164 154 159 155 149 153 150 159 157 141 143 148 113 81 92 127 251 303 327 269
253 242 233 90 113 94 143 237 273 280 249 205 198 197 197 156 145 144 151 155 152 159 174 164 159 154 151 147 154 139 152 163 128 126 128 152 154 181 151 190 254 240 293
159 142 146 153 152 34 17 151 221 284 280 231 209 197 183 172 175 168 165 159 160 165 169 163 157 148 140 135 128 130 137 135 131 137 139 123 135 130 119 129 220 271 302
325 308 230 188 174 32 349 340 324 303 276 248 209 200 178 177 175 175 165 172 172 167 154 148 147 148 140 134 127 121 132 143 126 138 131 123 129 116 133 153 139 316 292
270 232 271 268 275 298 295 283 293 284 267 248 194 179 176 162 165 160 155 149 147 148 147 148 149 154 140 137 136 138 125 136 123 140 140 135 146 127 140 141 148 161 262
329 300 284 256 256 272 284 290 279 266 266 230 182 159 164 172 157 149 149 153 148 150 152 151 144 138 137 134 133 129 129 122 151 132 132 128 134 138 141 149 162 178 193
280 284 264 256 258 267 293 307 296 294 253 176 148 149 149 144 149 149 145 148 149 153 157 152 140 134 121 119 116 101 114 131 137 135 153 166 161 167 155 176 183 210 187
308 299 283 246 240 280 321 305 300 285 191 168 138 136 127 128 139 142 138 146 140 141 141 132 122 113 106 107 111 133 152 140 158 138 190 169 182 185 191 192 220 224 228
291 291 247 243 265 297 310 324 357 39 118 116 120 126 128 129 138 133 130 119 125 125 123 116 109 109 107 98 86 82 122 111 95 220 273 268 205 239 232 223 243 236 248
319 291 224 226 297 12 15 34 36 47 63 108 119 119 126 128 131 128 120 117 119 117 109 104 101 100 112 107 101 104 73 62 342 272 308 286 244 238 243 240 242 248 250
328 344 34 35 353 51 50 42 42 40 63 87 110 113 104 105 107 107 106 106 106 100 100 94 80 85 85 99 106 89 142 151 266 326 338 296 267 253 256 242 239 237 241
296 327 18 51 27 55 83 85 66 75 90 104 96 97 100 97 104 98 100 98 96 98 99 108 117 120 120 124 121 112 115 119 17 329 329 312 306 306 304 302 301 289 256
283 282 92 117 85 71 70 81 80 79 80 83 87 89 103 97 95 95 91 86 88 92 94 94 110 117 115 124 128 144 100 68 2 342 327 328 343 335 305 296 296 297 298
296 224 124 95 69 75 79 83 77 75 76 73 78 90 91 93 92 88 89 92 97 99 111 123 148 145 150 152 130 115 84 53 343 305 327 312 299 305 304 280 272 269 269
20 55 78 91 86 84 87 88 87 88 89 90 95 96 98 96 98 101 98 102 106 106 121 141 142 152 131 138 132 127 115 258 299 307 297 291 310 309 309 303 275 280 276
38 62 71 73 80 91 103 102 107 105 101 105 99 92 96 105 105 103 109 100 90 138 163 123 133 142 154 174 181 178 178 267 289 294 309 330 322 314 309 314 310 307 292
61 66 73 82 83 85 96 89 86 79 72 81 88 86 86 98 103 103 118 129 126 120 116 110 80 96 141 271 274 333 170 256 311 313 312 296 315 313 323 324 338 296 296
68 78 79 77 76 78 87 84 77 73 85 74 76 93 100 103 110 123 100 94 108 104 98 103 80 60 35 24 17 15 348 345 345 302 284 281 305 329 327 325 309 311 327
100 87 90 86 80 84 99 94 84 96 98 102 121 97 82 83 85 95 95 94 102 106 88 86 83 40 21 6 3 1 352 335 317 281 298 334 331 326 326 309 319 326 313
113 108 105 90 79 72 84 97 106 107 113 109 96 92 92 85 71 70 81 97 105 97 95 96 93 27 3 349 329 305 307 302 305 309 333 333 333 324 315 317 306 297 300
102 95 102 104 107 109 108 120 135 120 102 95 90 77 73 89 93 86 110 96 101 134 135 129 123 94 349 278 327 333 308 291 315 24 358 330 319 315 311 310 308 311 309
110 104 109 110 112 110 109 107 113 120 114 103 97 112 112 104 101 104 67 71 88 78 86 132 179 246 278 340 341 331 333 349 343 13 308 306 302 306 309 314 314 312 310